This is the latest recevied weather packets stored in our database for station/object W4MLN-3. If no packets are shown the sender has not sent any weather packets the latest 10 day(s).
| Time | Temp. | Humidity | Pressure | Rain* | Wind** | Luminosity | Snow |
|---|---|---|---|---|---|---|---|
| 1778099103 | 21.67° C | 58% | 1012.1 hPa | 0 mm | - | - | - |
| 1778098803 | 21.67° C | 58% | 1012.2 hPa | 0 mm | - | - | - |
| 1778098503 | 22.22° C | 58% | 1012.1 hPa | 0 mm | - | - | - |
| 1778098224 | 22.22° C | 56% | 1012.3 hPa | 0 mm | - | - | - |
| 1778097903 | 22.22° C | 58% | 1012.3 hPa | 0 mm | - | - | - |
| 1778097603 | 22.22° C | 57% | 1012.5 hPa | 0 mm | - | - | - |
| 1778097304 | 22.22° C | 57% | 1012.5 hPa | 0 mm | - | - | - |
| 1778097003 | 22.22° C | 55% | 1012.4 hPa | 0 mm | - | - | - |
| 1778096703 | 22.22° C | 55% | 1012.3 hPa | 0 mm | - | - | - |
| 1778096403 | 22.22° C | 58% | 1012.7 hPa | 0 mm | - | - | - |
| 1778096104 | 22.22° C | 57% | 1012.6 hPa | 0 mm | - | - | - |
| 1778095803 | 22.22° C | 59% | 1012.5 hPa | 0 mm | - | - | - |
| 1778095524 | 22.22° C | 59% | 1012.5 hPa | 0 mm | - | - | - |
| 1778095203 | 22.22° C | 58% | 1012.2 hPa | 0 mm | - | - | - |
| 1778094924 | 21.67° C | 59% | 1012.1 hPa | 0 mm | - | - | - |
| 1778094603 | 21.67° C | 58% | 1012.2 hPa | 0 mm | - | - | - |
| 1778094324 | 22.22° C | 58% | 1012.2 hPa | 0 mm | - | - | - |
| 1778094003 | 22.22° C | 58% | 1012.2 hPa | 0 mm | - | - | - |
| 1778093703 | 22.22° C | 59% | 1012.3 hPa | 0 mm | - | - | - |
| 1778093403 | 22.22° C | 60% | 1012.3 hPa | 0 mm | - | - | - |
| 1778093124 | 21.67° C | 62% | 1012.3 hPa | 0 mm | - | - | - |
| 1778092803 | 21.11° C | 62% | 1012.3 hPa | 0 mm | - | - | - |
| 1778092504 | 21.11° C | 62% | 1012.2 hPa | 0 mm | - | - | - |
| 1778092203 | 20.56° C | 64% | 1012.2 hPa | 0 mm | - | - | - |
| 1778091924 | 20.56° C | 65% | 1012.2 hPa | 0 mm | - | - | - |
* Rain latest hour (hover to see other rain measurements)
** Current wind speed in m/s (hover to see current wind gust speed)